Flag for Turkmenistan Weather past 2 weeks in Ashgabat, Turkmenistan

Now
84 °F

Sunny.


Feels Like: 82 °F
Forecast: 83 / 101 °F
Wind: 3 mph from Northeast

Location: Ashgabat

Current Time: Jul 28, 2015 at 8:57:11 AM

Latest Report: Jul 28, 2015 at 8:00 AM


Visibility: N/A

Pressure: 29.71 "Hg

Humidity: 27%

Dew point: 46 °F

Location of AshgabatLocation

Historic Weather in Ashgabat — Graph

°F

Ashgabat temperature yesterday

Maximum temperature yesterday: 102 °F (at 3:00 PM)
Minimum temperature yesterday: 77 °F (at 5:00 AM)
Average temperature yesterday: 93 °F

Past Weeks' High & Low Weather Summary

 TemperatureHumidityPressure
High109 °F (Jul 13, 4:30 PM)94% (Jul 20, 10:00 AM)29.98 "Hg (Jul 20, 10:00 AM)
Low64 °F (Jul 20, 10:00 AM)8% (Jul 26, 6:00 PM)29.62 "Hg (Jul 27, 6:00 PM)
Average90 °F31%29.80 "Hg
* Reported Jul 13 7:00 AM — Jul 28 7:00 AM, Ashgabat, Weather by CustomWeather, © 2015

Note: Actual official high and low records may vary slightly from our data, if they occured in-between our weather recording intervals... More about our weather records

Advertising

Ashgabat weather history for previous 24 hours

 ConditionsComfort  
Time TempWeatherWind HumidityBarometerVisibility
7:00 AM
Tue, Jul 28
81 °FClear.3 mph28%29.68 "HgN/A
6:00 AM79 °FClear.3 mph32%29.68 "HgN/A
5:00 AM77 °FClear.6 mph34%29.65 "Hg4 mi
4:00 AM81 °FClear.3 mph26%29.65 "HgN/A
3:00 AM84 °FClear.3 mph23%29.65 "Hg4 mi
2:00 AM84 °FClear.3 mph25%29.65 "Hg3 mi
1:00 AM82 °FClear.3 mph26%29.65 "HgN/A
12:00 AM90 °FClear.3 mph17%29.65 "HgN/A
11:30 PM
Mon, Jul 27
90 °FClear.3 mph17%29.65 "Hg2 mi
11:00 PM90 °FClear.3 mph17%29.65 "Hg4 mi
10:00 PM91 °FClear.3 mph20%29.65 "Hg3 mi
9:00 PM97 °FPassing clouds.3 mph13%29.65 "HgN/A
8:30 PM97 °FPassing clouds.3 mph13%29.65 "HgN/A
8:00 PM99 °FPassing clouds.3 mph13%29.62 "HgN/A
7:30 PM100 °FScattered clouds.3 mph10%29.62 "HgN/A
7:00 PM100 °FScattered clouds.3 mph10%29.62 "HgN/A
6:00 PM100 °FPassing clouds.3 mph14%29.62 "HgN/A
5:00 PM102 °FScattered clouds.3 mph11%29.65 "HgN/A
4:00 PM102 °FScattered clouds.6 mph11%29.65 "HgN/A
3:00 PM102 °FScattered clouds.6 mph12%29.65 "HgN/A
2:00 PM100 °FScattered clouds.8 mph12%29.68 "HgN/A
1:00 PM100 °FScattered clouds.6 mph13%29.68 "HgN/A
12:00 PM100 °FPartly sunny.3 mph13%29.68 "HgN/A
11:00 AM97 °FBroken clouds.3 mph13%29.71 "HgN/A
10:30 AM95 °FBroken clouds.3 mph14%29.71 "HgN/A
10:00 AM95 °FScattered clouds.3 mph13%29.71 "HgN/A
9:00 AM91 °FScattered clouds.6 mph15%29.71 "HgN/A
8:00 AM86 °FScattered clouds.6 mph18%29.71 "HgN/A
Weather by CustomWeather, © 2015

See weather overviewHow to use our weather pages